owner,sensor,date,latitude,longitude,vertical_datum,sea_water_practical_salinity,qcFlag 
SCCF RECON,ioos:station:SCCF:53:1,2011-09-01T00:00:00Z,26.6493,-81.8810,2.48,0.54,1111122 
SCCF RECON,ioos:station:SCCF:53:1,2011-09-01T01:00:00Z,26.6493,-81.8810,2.43,0.39,1111122 
SCCF RECON,ioos:station:SCCF:53:1,2011-09-01T02:00:00Z,26.6493,-81.8810,2.38,0.37,1111122 
SCCF RECON,ioos:station:SCCF:53:1,2011-09-01T03:00:00Z,26.6493,-81.8810,2.33,0.36,1111122 
SCCF RECON,ioos:station:SCCF:53:1,2011-09-01T04:00:00Z,26.6493,-81.8810,2.28,0.34,1111122 
SCCF RECON,ioos:station:SCCF:53:1,2011-09-01T05:00:00Z,26.6493,-81.8810,2.26,0.34,1111122 
SCCF RECON,ioos:station:SCCF:53:1,2011-09-01T06:00:00Z,26.6493,-81.8810,2.332,0.34,1111122 
SCCF RECON,ioos:station:SCCF:53:1,2011-09-01T07:00:00Z,26.6493,-81.8810,2.39,0.36,1111122 
SCCF RECON,ioos:station:SCCF:53:1,2011-09-01T08:00:00Z,26.6493,-81.8810,2.45,0.41,1111122 
SCCF RECON,ioos:station:SCCF:53:1,2011-09-01T09:00:00Z,26.6493,-81.8810,2.52,0.52,1111122 
SCCF RECON,ioos:station:SCCF:53:1,2011-09-01T10:00:00Z,26.6493,-81.8810,2.56,0.63,1111122 
SCCF RECON,ioos:station:SCCF:53:1,2011-09-01T11:00:00Z,26.6493,-81.8810,2.54,0.68,1111122 
SCCF RECON,ioos:station:SCCF:53:1,2011-09-01T12:00:00Z,26.6493,-81.8810,2.49,0.54,1111122 
SCCF RECON,ioos:station:SCCF:53:1,2011-09-01T13:00:00Z,26.6493,-81.8810,2.43,0.4,1111122 
SCCF RECON,ioos:station:SCCF:53:1,2011-09-01T14:00:00Z,26.6493,-81.8810,2.38,0.36,1111122 
SCCF RECON,ioos:station:SCCF:53:1,2011-09-01T15:00:00Z,26.6493,-81.8810,2.322,0.35,1111122 
SCCF RECON,ioos:station:SCCF:53:1,2011-09-01T16:00:00Z,26.6493,-81.8810,2.26,0.35,1111122 
SCCF RECON,ioos:station:SCCF:53:1,2011-09-01T17:00:00Z,26.6493,-81.8810,2.21,0.35,1111122 
SCCF RECON,ioos:station:SCCF:53:1,2011-09-01T19:00:00Z,26.6493,-81.8810,2.2,0.35,1111122 
SCCF RECON,ioos:station:SCCF:53:1,2011-09-01T20:00:00Z,26.6493,-81.8810,2.25,0.36,1111122 
SCCF RECON,ioos:station:SCCF:53:1,2011-09-01T21:00:00Z,26.6493,-81.8810,2.31,0.36,1111122 
SCCF RECON,ioos:station:SCCF:53:1,2011-09-01T22:00:00Z,26.6493,-81.8810,2.377,0.41,1111122 
SCCF RECON,ioos:station:SCCF:53:1,2011-09-01T23:00:00Z,26.6493,-81.8810,2.47,0.42,1111122 
SCCF RECON,ioos:station:SCCF:53:1,2011-09-02T00:00:00Z,26.6493,-81.8810,2.47,0.45,1111122 
SCCF RECON,ioos:station:SCCF:53:1,2011-09-02T01:00:00Z,26.6493,-81.8810,2.42,0.37,1111122 
SCCF RECON,ioos:station:SCCF:53:1,2011-09-02T02:00:00Z,26.6493,-81.8810,2.38,0.37,1111122 
SCCF RECON,ioos:station:SCCF:53:1,2011-09-02T03:00:00Z,26.6493,-81.8810,2.33,0.36,1111122 
SCCF RECON,ioos:station:SCCF:53:1,2011-09-02T04:00:00Z,26.6493,-81.8810,2.28,0.34,1111122 
SCCF RECON,ioos:station:SCCF:53:1,2011-09-02T05:00:00Z,26.6493,-81.8810,2.24,0.32,1111122 
SCCF RECON,ioos:station:SCCF:53:1,2011-09-02T06:00:00Z,26.6493,-81.8810,2.25,0.32,1111122 
SCCF RECON,ioos:station:SCCF:53:1,2011-09-02T07:00:00Z,26.6493,-81.8810,2.33,0.34,1111122 
SCCF RECON,ioos:station:SCCF:53:1,2011-09-02T08:00:00Z,26.6493,-81.8810,2.391,0.37,1111122 
SCCF RECON,ioos:station:SCCF:53:1,2011-09-02T09:00:00Z,26.6493,-81.8810,2.461,0.48,1111122 
SCCF RECON,ioos:station:SCCF:53:1,2011-09-02T10:00:00Z,26.6493,-81.8810,2.53,0.74,1111122 
SCCF RECON,ioos:station:SCCF:53:1,2011-09-02T11:00:00Z,26.6493,-81.8810,2.571,1.08,1111122 
SCCF RECON,ioos:station:SCCF:53:1,2011-09-02T12:00:00Z,26.6493,-81.8810,2.56,0.74,1111122 
SCCF RECON,ioos:station:SCCF:53:1,2011-09-02T13:00:00Z,26.6493,-81.8810,2.482,0.58,1111122 
SCCF RECON,ioos:station:SCCF:53:1,2011-09-02T14:00:00Z,26.6493,-81.8810,2.428,0.4,1111122 
SCCF RECON,ioos:station:SCCF:53:1,2011-09-02T15:00:00Z,26.6493,-81.8810,2.369,0.35,1111122 
SCCF RECON,ioos:station:SCCF:53:1,2011-09-02T16:00:00Z,26.6493,-81.8810,2.308,0.31,1111122 
SCCF RECON,ioos:station:SCCF:53:1,2011-09-02T17:00:00Z,26.6493,-81.8810,2.245,0.31,1111122 
SCCF RECON,ioos:station:SCCF:53:1,2011-09-02T18:00:00Z,26.6493,-81.8810,2.19,0.3,1111122 
SCCF RECON,ioos:station:SCCF:53:1,2011-09-02T19:00:00Z,26.6493,-81.8810,2.179,0.3,1111122 
SCCF RECON,ioos:station:SCCF:53:1,2011-09-02T20:00:00Z,26.6493,-81.8810,2.22,0.34,1111122 
SCCF RECON,ioos:station:SCCF:53:1,2011-09-02T21:00:00Z,26.6493,-81.8810,2.27,0.37,1111122 
SCCF RECON,ioos:station:SCCF:53:1,2011-09-02T22:00:00Z,26.6493,-81.8810,2.33,0.72,1111122 
SCCF RECON,ioos:station:SCCF:53:1,2011-09-02T23:00:00Z,26.6493,-81.8810,2.41,0.89,1111122 
SCCF RECON,ioos:station:SCCF:53:1,2011-09-03T00:00:00Z,26.6493,-81.8810,2.46,0.99,1111122 
SCCF RECON,ioos:station:SCCF:53:1,2011-09-03T01:00:00Z,26.6493,-81.8810,2.48,0.91,1111122 
SCCF RECON,ioos:station:SCCF:53:1,2011-09-03T02:00:00Z,26.6493,-81.8810,2.46,0.78,1111122 
SCCF RECON,ioos:station:SCCF:53:1,2011-09-03T03:00:00Z,26.6493,-81.8810,2.43,0.67,1111122 
SCCF RECON,ioos:station:SCCF:53:1,2011-09-03T04:00:00Z,26.6493,-81.8810,2.39,0.58,1111122 
SCCF RECON,ioos:station:SCCF:53:1,2011-09-03T05:00:00Z,26.6493,-81.8810,2.35,0.41,1111122 
SCCF RECON,ioos:station:SCCF:53:1,2011-09-03T06:00:00Z,26.6493,-81.8810,2.33,0.37,1111122 
SCCF RECON,ioos:station:SCCF:53:1,2011-09-03T07:00:00Z,26.6493,-81.8810,2.379,0.54,1111122 
SCCF RECON,ioos:station:SCCF:53:1,2011-09-03T08:00:00Z,26.6493,-81.8810,2.44,0.91,1111122 
SCCF RECON,ioos:station:SCCF:53:1,2011-09-03T09:00:00Z,26.6493,-81.8810,2.5,1.46,1111122 
SCCF RECON,ioos:station:SCCF:53:1,2011-09-03T10:00:00Z,26.6493,-81.8810,2.55,1.68,1111122 
SCCF RECON,ioos:station:SCCF:53:1,2011-09-03T11:00:00Z,26.6493,-81.8810,2.582,2.3,1111122 
SCCF RECON,ioos:station:SCCF:53:1,2011-09-03T12:00:00Z,26.6493,-81.8810,2.59,1.94,1111122 
SCCF RECON,ioos:station:SCCF:53:1,2011-09-03T13:00:00Z,26.6493,-81.8810,2.54,1.52,1111122 
SCCF RECON,ioos:station:SCCF:53:1,2011-09-03T14:00:00Z,26.6493,-81.8810,2.48,1.29,1111122 
SCCF RECON,ioos:station:SCCF:53:1,2011-09-03T15:00:00Z,26.6493,-81.8810,2.431,0.82,1111122 
SCCF RECON,ioos:station:SCCF:53:1,2011-09-03T16:00:00Z,26.6493,-81.8810,2.371,0.58,1111122 
SCCF RECON,ioos:station:SCCF:53:1,2011-09-03T17:00:00Z,26.6493,-81.8810,2.308,0.43,1111122 
SCCF RECON,ioos:station:SCCF:53:1,2011-09-03T18:00:00Z,26.6493,-81.8810,2.244,0.37,1111122 
SCCF RECON,ioos:station:SCCF:53:1,2011-09-03T19:00:00Z,26.6493,-81.8810,2.192,0.42,1111122 
SCCF RECON,ioos:station:SCCF:53:1,2011-09-03T20:00:00Z,26.6493,-81.8810,2.17,0.4,1111122 
SCCF RECON,ioos:station:SCCF:53:1,2011-09-03T21:00:00Z,26.6493,-81.8810,2.179,0.36,1111122 
SCCF RECON,ioos:station:SCCF:53:1,2011-09-03T22:00:00Z,26.6493,-81.8810,2.249,1.15,1111122 
SCCF RECON,ioos:station:SCCF:53:1,2011-09-03T23:00:00Z,26.6493,-81.8810,2.29,1.56,1111122 
SCCF RECON,ioos:station:SCCF:53:1,2011-09-04T00:00:00Z,26.6493,-81.8810,2.32,1.7,1111122 
SCCF RECON,ioos:station:SCCF:53:1,2011-09-04T01:00:00Z,26.6493,-81.8810,2.369,1.91,1111122 
SCCF RECON,ioos:station:SCCF:53:1,2011-09-04T02:00:00Z,26.6493,-81.8810,2.38,1.74,1111122 
SCCF RECON,ioos:station:SCCF:53:1,2011-09-04T03:00:00Z,26.6493,-81.8810,2.375,1.88,1111122 
SCCF RECON,ioos:station:SCCF:53:1,2011-09-04T04:00:00Z,26.6493,-81.8810,2.37,2.28,1111122 
SCCF RECON,ioos:station:SCCF:53:1,2011-09-04T05:00:00Z,26.6493,-81.8810,2.35,2.92,1111122 
SCCF RECON,ioos:station:SCCF:53:1,2011-09-04T06:00:00Z,26.6493,-81.8810,2.33,2.47,1111122 
SCCF RECON,ioos:station:SCCF:53:1,2011-09-04T07:00:00Z,26.6493,-81.8810,2.34,2.68,1111122 
SCCF RECON,ioos:station:SCCF:53:1,2011-09-04T08:00:00Z,26.6493,-81.8810,2.39,3.33,1111122 
SCCF RECON,ioos:station:SCCF:53:1,2011-09-04T09:00:00Z,26.6493,-81.8810,2.452,3.32,1111122 
SCCF RECON,ioos:station:SCCF:53:1,2011-09-04T10:00:00Z,26.6493,-81.8810,2.52,3.39,1111122 
SCCF RECON,ioos:station:SCCF:53:1,2011-09-04T11:00:00Z,26.6493,-81.8810,2.586,4.08,1111122 
SCCF RECON,ioos:station:SCCF:53:1,2011-09-04T12:00:00Z,26.6493,-81.8810,2.633,4.11,1111122 
SCCF RECON,ioos:station:SCCF:53:1,2011-09-04T13:00:00Z,26.6493,-81.8810,2.66,3.8,1111122 
SCCF RECON,ioos:station:SCCF:53:1,2011-09-04T14:00:00Z,26.6493,-81.8810,2.64,3.56,1111122 
SCCF RECON,ioos:station:SCCF:53:1,2011-09-04T15:00:00Z,26.6493,-81.8810,2.58,2.55,1111122 
SCCF RECON,ioos:station:SCCF:53:1,2011-09-04T16:00:00Z,26.6493,-81.8810,2.519,2.12,1111122 
SCCF RECON,ioos:station:SCCF:53:1,2011-09-04T17:00:00Z,26.6493,-81.8810,2.461,1.78,1111122 
SCCF RECON,ioos:station:SCCF:53:1,2011-09-04T18:00:00Z,26.6493,-81.8810,2.406,1.01,1111122 
SCCF RECON,ioos:station:SCCF:53:1,2011-09-04T19:00:00Z,26.6493,-81.8810,2.34,0.79,1111122 
SCCF RECON,ioos:station:SCCF:53:1,2011-09-04T20:00:00Z,26.6493,-81.8810,2.301,0.76,1111122 
SCCF RECON,ioos:station:SCCF:53:1,2011-09-04T21:00:00Z,26.6493,-81.8810,2.28,0.66,1111122 
SCCF RECON,ioos:station:SCCF:53:1,2011-09-04T22:00:00Z,26.6493,-81.8810,2.302,0.64,1111122 
SCCF RECON,ioos:station:SCCF:53:1,2011-09-04T23:00:00Z,26.6493,-81.8810,2.341,0.61,1111122 
SCCF RECON,ioos:station:SCCF:53:1,2011-09-05T00:00:00Z,26.6493,-81.8810,2.38,1.4,1111122 
SCCF RECON,ioos:station:SCCF:53:1,2011-09-05T01:00:00Z,26.6493,-81.8810,2.43,1.21,1111122 
SCCF RECON,ioos:station:SCCF:53:1,2011-09-05T02:00:00Z,26.6493,-81.8810,2.47,1.27,1111122 
SCCF RECON,ioos:station:SCCF:53:1,2011-09-05T03:00:00Z,26.6493,-81.8810,2.48,1.12,1111122 
SCCF RECON,ioos:station:SCCF:53:1,2011-09-05T04:00:00Z,26.6493,-81.8810,2.49,1.02,1111122 
SCCF RECON,ioos:station:SCCF:53:1,2011-09-05T05:00:00Z,26.6493,-81.8810,2.48,0.83,1111122 
SCCF RECON,ioos:station:SCCF:53:1,2011-09-05T06:00:00Z,26.6493,-81.8810,2.48,0.78,1111122 
SCCF RECON,ioos:station:SCCF:53:1,2011-09-05T07:00:00Z,26.6493,-81.8810,2.46,0.71,1111122 
SCCF RECON,ioos:station:SCCF:53:1,2011-09-05T08:00:00Z,26.6493,-81.8810,2.46,0.5,1111122 
SCCF RECON,ioos:station:SCCF:53:1,2011-09-05T09:00:00Z,26.6493,-81.8810,2.48,0.55,1111122 
SCCF RECON,ioos:station:SCCF:53:1,2011-09-05T10:00:00Z,26.6493,-81.8810,2.54,0.71,1111122 
SCCF RECON,ioos:station:SCCF:53:1,2011-09-05T11:00:00Z,26.6493,-81.8810,2.6,1.12,1111122 
SCCF RECON,ioos:station:SCCF:53:1,2011-09-05T12:00:00Z,26.6493,-81.8810,2.65,1.17,1111122 
SCCF RECON,ioos:station:SCCF:53:1,2011-09-05T13:00:00Z,26.6493,-81.8810,2.694,1.17,1111122 
SCCF RECON,ioos:station:SCCF:53:1,2011-09-05T14:00:00Z,26.6493,-81.8810,2.72,1.42,1111122 
SCCF RECON,ioos:station:SCCF:53:1,2011-09-05T15:00:00Z,26.6493,-81.8810,2.708,1.19,1111122 
SCCF RECON,ioos:station:SCCF:53:1,2011-09-05T16:00:00Z,26.6493,-81.8810,2.671,0.66,1111122 
SCCF RECON,ioos:station:SCCF:53:1,2011-09-05T17:00:00Z,26.6493,-81.8810,2.613,0.58,1111122 
SCCF RECON,ioos:station:SCCF:53:1,2011-09-05T18:00:00Z,26.6493,-81.8810,2.561,0.5,1111122 
SCCF RECON,ioos:station:SCCF:53:1,2011-09-05T19:00:00Z,26.6493,-81.8810,2.503,0.41,1111122 
SCCF RECON,ioos:station:SCCF:53:1,2011-09-05T20:00:00Z,26.6493,-81.8810,2.447,0.35,1111122 
SCCF RECON,ioos:station:SCCF:53:1,2011-09-05T21:00:00Z,26.6493,-81.8810,2.396,0.41,1111122 
SCCF RECON,ioos:station:SCCF:53:1,2011-09-05T22:00:00Z,26.6493,-81.8810,2.363,0.35,1111122 
SCCF RECON,ioos:station:SCCF:53:1,2011-09-05T23:00:00Z,26.6493,-81.8810,2.348,0.33,1111122 
SCCF RECON,ioos:station:SCCF:53:1,2011-09-06T00:00:00Z,26.6493,-81.8810,2.365,0.29,1111122 
SCCF RECON,ioos:station:SCCF:53:1,2011-09-06T01:00:00Z,26.6493,-81.8810,2.412,0.3,1111122 
SCCF RECON,ioos:station:SCCF:53:1,2011-09-06T02:00:00Z,26.6493,-81.8810,2.46,0.29,1111122 
SCCF RECON,ioos:station:SCCF:53:1,2011-09-06T03:00:00Z,26.6493,-81.8810,2.5,0.29,1111122 
SCCF RECON,ioos:station:SCCF:53:1,2011-09-06T04:00:00Z,26.6493,-81.8810,2.54,0.38,1111122 
SCCF RECON,ioos:station:SCCF:53:1,2011-09-06T05:00:00Z,26.6493,-81.8810,2.56,0.6,1111122 
SCCF RECON,ioos:station:SCCF:53:1,2011-09-06T06:00:00Z,26.6493,-81.8810,2.57,0.58,1111122 
SCCF RECON,ioos:station:SCCF:53:1,2011-09-06T07:00:00Z,26.6493,-81.8810,2.572,0.38,1111122 
SCCF RECON,ioos:station:SCCF:53:1,2011-09-06T08:00:00Z,26.6493,-81.8810,2.565,0.43,1111122 
SCCF RECON,ioos:station:SCCF:53:1,2011-09-06T09:00:00Z,26.6493,-81.8810,2.569,0.32,1111122 
SCCF RECON,ioos:station:SCCF:53:1,2011-09-06T10:00:00Z,26.6493,-81.8810,2.601,0.35,1111122 
SCCF RECON,ioos:station:SCCF:53:1,2011-09-06T11:00:00Z,26.6493,-81.8810,2.67,0.4,1111122 
SCCF RECON,ioos:station:SCCF:53:1,2011-09-06T12:00:00Z,26.6493,-81.8810,2.728,0.42,1111122 
SCCF RECON,ioos:station:SCCF:53:1,2011-09-06T13:00:00Z,26.6493,-81.8810,2.782,0.45,1111122 
SCCF RECON,ioos:station:SCCF:53:1,2011-09-06T14:00:00Z,26.6493,-81.8810,2.844,0.51,1111122 
SCCF RECON,ioos:station:SCCF:53:1,2011-09-06T15:00:00Z,26.6493,-81.8810,2.849,0.52,1111122 
SCCF RECON,ioos:station:SCCF:53:1,2011-09-06T16:00:00Z,26.6493,-81.8810,2.834,0.73,1111122 
SCCF RECON,ioos:station:SCCF:53:1,2011-09-06T17:00:00Z,26.6493,-81.8810,2.779,0.64,1111122 
SCCF RECON,ioos:station:SCCF:53:1,2011-09-06T18:00:00Z,26.6493,-81.8810,2.717,0.78,1111122 
SCCF RECON,ioos:station:SCCF:53:1,2011-09-06T19:00:00Z,26.6493,-81.8810,2.67,0.46,1111122 
SCCF RECON,ioos:station:SCCF:53:1,2011-09-06T20:00:00Z,26.6493,-81.8810,2.617,0.36,1111122 
SCCF RECON,ioos:station:SCCF:53:1,2011-09-06T21:00:00Z,26.6493,-81.8810,2.559,0.35,1111122 
SCCF RECON,ioos:station:SCCF:53:1,2011-09-06T22:00:00Z,26.6493,-81.8810,2.501,0.33,1111122 
SCCF RECON,ioos:station:SCCF:53:1,2011-09-06T23:00:00Z,26.6493,-81.8810,2.447,0.31,1111122 
SCCF RECON,ioos:station:SCCF:53:1,2011-09-07T00:00:00Z,26.6493,-81.8810,2.39,0.23,1111122 
SCCF RECON,ioos:station:SCCF:53:1,2011-09-07T01:00:00Z,26.6493,-81.8810,2.36,0.25,1111122 
SCCF RECON,ioos:station:SCCF:53:1,2011-09-07T02:00:00Z,26.6493,-81.8810,2.36,0.23,1111122 
SCCF RECON,ioos:station:SCCF:53:1,2011-09-07T03:00:00Z,26.6493,-81.8810,2.382,0.23,1111122 
SCCF RECON,ioos:station:SCCF:53:1,2011-09-07T04:00:00Z,26.6493,-81.8810,2.43,0.23,1111122 
SCCF RECON,ioos:station:SCCF:53:1,2011-09-07T05:00:00Z,26.6493,-81.8810,2.479,0.24,1111122 
SCCF RECON,ioos:station:SCCF:53:1,2011-09-07T06:00:00Z,26.6493,-81.8810,2.51,0.25,1111122 
SCCF RECON,ioos:station:SCCF:53:1,2011-09-07T07:00:00Z,26.6493,-81.8810,2.51,0.24,1111122 
SCCF RECON,ioos:station:SCCF:53:1,2011-09-07T08:00:00Z,26.6493,-81.8810,2.48,0.23,1111122 
SCCF RECON,ioos:station:SCCF:53:1,2011-09-07T09:00:00Z,26.6493,-81.8810,2.45,0.23,1111122 
SCCF RECON,ioos:station:SCCF:53:1,2011-09-07T10:00:00Z,26.6493,-81.8810,2.44,0.25,1111122 
SCCF RECON,ioos:station:SCCF:53:1,2011-09-07T11:00:00Z,26.6493,-81.8810,2.44,0.33,1111122 
SCCF RECON,ioos:station:SCCF:53:1,2011-09-07T12:00:00Z,26.6493,-81.8810,2.48,0.32,1111122 
SCCF RECON,ioos:station:SCCF:53:1,2011-09-07T13:00:00Z,26.6493,-81.8810,2.56,0.37,1111122 
SCCF RECON,ioos:station:SCCF:53:1,2011-09-07T14:00:00Z,26.6493,-81.8810,2.613,0.38,1111122 
SCCF RECON,ioos:station:SCCF:53:1,2011-09-07T15:00:00Z,26.6493,-81.8810,2.64,0.51,1111122 
SCCF RECON,ioos:station:SCCF:53:1,2011-09-07T16:00:00Z,26.6493,-81.8810,2.639,0.47,1111122 
SCCF RECON,ioos:station:SCCF:53:1,2011-09-07T17:00:00Z,26.6493,-81.8810,2.61,0.43,1111122 
SCCF RECON,ioos:station:SCCF:53:1,2011-09-07T18:00:00Z,26.6493,-81.8810,2.557,0.31,1111122 
SCCF RECON,ioos:station:SCCF:53:1,2011-09-07T19:00:00Z,26.6493,-81.8810,2.511,0.3,1111122 
SCCF RECON,ioos:station:SCCF:53:1,2011-09-07T20:00:00Z,26.6493,-81.8810,2.46,0.26,1111122 
SCCF RECON,ioos:station:SCCF:53:1,2011-09-07T21:00:00Z,26.6493,-81.8810,2.41,0.23,1111122 
SCCF RECON,ioos:station:SCCF:53:1,2011-09-07T22:00:00Z,26.6493,-81.8810,2.362,0.22,1111122 
SCCF RECON,ioos:station:SCCF:53:1,2011-09-07T23:00:00Z,26.6493,-81.8810,2.3,0.22,1111122 
SCCF RECON,ioos:station:SCCF:53:1,2011-09-08T00:00:00Z,26.6493,-81.8810,2.27,0.22,1111122 
SCCF RECON,ioos:station:SCCF:53:1,2011-09-08T01:00:00Z,26.6493,-81.8810,2.24,0.22,1111122 
SCCF RECON,ioos:station:SCCF:53:1,2011-09-08T02:00:00Z,26.6493,-81.8810,2.25,0.22,1111122 
SCCF RECON,ioos:station:SCCF:53:1,2011-09-08T03:00:00Z,26.6493,-81.8810,2.3,0.22,1111122 
SCCF RECON,ioos:station:SCCF:53:1,2011-09-08T04:00:00Z,26.6493,-81.8810,2.35,0.22,1111122 
SCCF RECON,ioos:station:SCCF:53:1,2011-09-08T05:00:00Z,26.6493,-81.8810,2.4,0.22,1111122 
SCCF RECON,ioos:station:SCCF:53:1,2011-09-08T06:00:00Z,26.6493,-81.8810,2.44,0.22,1111122 
SCCF RECON,ioos:station:SCCF:53:1,2011-09-08T07:00:00Z,26.6493,-81.8810,2.45,0.23,1111122 
SCCF RECON,ioos:station:SCCF:53:1,2011-09-08T08:00:00Z,26.6493,-81.8810,2.42,0.22,1111122 
SCCF RECON,ioos:station:SCCF:53:1,2011-09-08T09:00:00Z,26.6493,-81.8810,2.37,0.22,1111122 
SCCF RECON,ioos:station:SCCF:53:1,2011-09-08T10:00:00Z,26.6493,-81.8810,2.33,0.22,1111122 
SCCF RECON,ioos:station:SCCF:53:1,2011-09-08T11:00:00Z,26.6493,-81.8810,2.303,0.22,1111122 
SCCF RECON,ioos:station:SCCF:53:1,2011-09-08T12:00:00Z,26.6493,-81.8810,2.3,0.22,1111122 
SCCF RECON,ioos:station:SCCF:53:1,2011-09-08T13:00:00Z,26.6493,-81.8810,2.36,0.22,1111122 
SCCF RECON,ioos:station:SCCF:53:1,2011-09-08T14:00:00Z,26.6493,-81.8810,2.419,0.22,1111122 
SCCF RECON,ioos:station:SCCF:53:1,2011-09-08T15:00:00Z,26.6493,-81.8810,2.48,0.22,1111122 
SCCF RECON,ioos:station:SCCF:53:1,2011-09-08T16:00:00Z,26.6493,-81.8810,2.548,0.23,1111122 
SCCF RECON,ioos:station:SCCF:53:1,2011-09-08T17:00:00Z,26.6493,-81.8810,2.598,0.23,1111122 
SCCF RECON,ioos:station:SCCF:53:1,2011-09-08T18:00:00Z,26.6493,-81.8810,2.616,0.23,1111122 
SCCF RECON,ioos:station:SCCF:53:1,2011-09-08T19:00:00Z,26.6493,-81.8810,2.572,0.23,1111122 
SCCF RECON,ioos:station:SCCF:53:1,2011-09-08T20:00:00Z,26.6493,-81.8810,2.514,0.22,1111122 
SCCF RECON,ioos:station:SCCF:53:1,2011-09-08T21:00:00Z,26.6493,-81.8810,2.456,0.22,1111122 
SCCF RECON,ioos:station:SCCF:53:1,2011-09-08T22:00:00Z,26.6493,-81.8810,2.39,0.22,1111122 
SCCF RECON,ioos:station:SCCF:53:1,2011-09-08T23:00:00Z,26.6493,-81.8810,2.346,0.22,1111122 
SCCF RECON,ioos:station:SCCF:53:1,2011-09-09T00:00:00Z,26.6493,-81.8810,2.3,0.21,1111122 
SCCF RECON,ioos:station:SCCF:53:1,2011-09-09T01:00:00Z,26.6493,-81.8810,2.26,0.21,1111122 
SCCF RECON,ioos:station:SCCF:53:1,2011-09-09T02:00:00Z,26.6493,-81.8810,2.254,0.21,1111122 
SCCF RECON,ioos:station:SCCF:53:1,2011-09-09T03:00:00Z,26.6493,-81.8810,2.27,0.21,1111122 
SCCF RECON,ioos:station:SCCF:53:1,2011-09-09T04:00:00Z,26.6493,-81.8810,2.3,0.21,1111122 
SCCF RECON,ioos:station:SCCF:53:1,2011-09-09T05:00:00Z,26.6493,-81.8810,2.355,0.21,1111122 
SCCF RECON,ioos:station:SCCF:53:1,2011-09-09T06:00:00Z,26.6493,-81.8810,2.4,0.21,1111122 
SCCF RECON,ioos:station:SCCF:53:1,2011-09-09T07:00:00Z,26.6493,-81.8810,2.43,0.21,1111122 
SCCF RECON,ioos:station:SCCF:53:1,2011-09-09T08:00:00Z,26.6493,-81.8810,2.41,0.21,1111122 
SCCF RECON,ioos:station:SCCF:53:1,2011-09-09T09:00:00Z,26.6493,-81.8810,2.35,0.21,1111122 
SCCF RECON,ioos:station:SCCF:53:1,2011-09-09T10:00:00Z,26.6493,-81.8810,2.31,0.21,1111122 
SCCF RECON,ioos:station:SCCF:53:1,2011-09-09T11:00:00Z,26.6493,-81.8810,2.269,0.21,1111122 
SCCF RECON,ioos:station:SCCF:53:1,2011-09-09T12:00:00Z,26.6493,-81.8810,2.23,0.21,1111122 
SCCF RECON,ioos:station:SCCF:53:1,2011-09-09T13:00:00Z,26.6493,-81.8810,2.22,0.2,1111122 
SCCF RECON,ioos:station:SCCF:53:1,2011-09-09T14:00:00Z,26.6493,-81.8810,2.28,0.21,1111122 
SCCF RECON,ioos:station:SCCF:53:1,2011-09-09T15:00:00Z,26.6493,-81.8810,2.345,0.21,1111122 
SCCF RECON,ioos:station:SCCF:53:1,2011-09-09T16:00:00Z,26.6493,-81.8810,2.4,0.21,1111122 
SCCF RECON,ioos:station:SCCF:53:1,2011-09-09T17:00:00Z,26.6493,-81.8810,2.47,0.21,1111122 
SCCF RECON,ioos:station:SCCF:53:1,2011-09-09T18:00:00Z,26.6493,-81.8810,2.52,0.22,1111122 
SCCF RECON,ioos:station:SCCF:53:1,2011-09-09T19:00:00Z,26.6493,-81.8810,2.532,0.22,1111122 
SCCF RECON,ioos:station:SCCF:53:1,2011-09-09T20:00:00Z,26.6493,-81.8810,2.488,0.22,1111122 
SCCF RECON,ioos:station:SCCF:53:1,2011-09-09T21:00:00Z,26.6493,-81.8810,2.435,0.21,1111122 
SCCF RECON,ioos:station:SCCF:53:1,2011-09-09T22:00:00Z,26.6493,-81.8810,2.386,0.21,1111122 
SCCF RECON,ioos:station:SCCF:53:1,2011-09-09T23:00:00Z,26.6493,-81.8810,2.328,0.21,1111122 
SCCF RECON,ioos:station:SCCF:53:1,2011-09-10T00:00:00Z,26.6493,-81.8810,2.279,0.21,1111122 
SCCF RECON,ioos:station:SCCF:53:1,2011-09-10T01:00:00Z,26.6493,-81.8810,2.23,0.21,1111122 
SCCF RECON,ioos:station:SCCF:53:1,2011-09-10T02:00:00Z,26.6493,-81.8810,2.2,0.21,1111122 
SCCF RECON,ioos:station:SCCF:53:1,2011-09-10T03:00:00Z,26.6493,-81.8810,2.18,0.21,1111122 
SCCF RECON,ioos:station:SCCF:53:1,2011-09-10T04:00:00Z,26.6493,-81.8810,2.22,0.21,1111122 
SCCF RECON,ioos:station:SCCF:53:1,2011-09-10T05:00:00Z,26.6493,-81.8810,2.28,0.21,1111122 
SCCF RECON,ioos:station:SCCF:53:1,2011-09-10T06:00:00Z,26.6493,-81.8810,2.32,0.21,1111122 
SCCF RECON,ioos:station:SCCF:53:1,2011-09-10T07:00:00Z,26.6493,-81.8810,2.361,0.21,1111122 
SCCF RECON,ioos:station:SCCF:53:1,2011-09-10T08:00:00Z,26.6493,-81.8810,2.37,0.21,1111122 
SCCF RECON,ioos:station:SCCF:53:1,2011-09-10T09:00:00Z,26.6493,-81.8810,2.32,0.21,1111122 
SCCF RECON,ioos:station:SCCF:53:1,2011-09-10T10:00:00Z,26.6493,-81.8810,2.27,0.21,1111122 
SCCF RECON,ioos:station:SCCF:53:1,2011-09-10T11:00:00Z,26.6493,-81.8810,2.234,0.21,1111122 
SCCF RECON,ioos:station:SCCF:53:1,2011-09-10T12:00:00Z,26.6493,-81.8810,2.2,0.21,1111122 
SCCF RECON,ioos:station:SCCF:53:1,2011-09-10T13:00:00Z,26.6493,-81.8810,2.181,0.21,1111122 
SCCF RECON,ioos:station:SCCF:53:1,2011-09-10T14:00:00Z,26.6493,-81.8810,2.23,0.21,1111122 
SCCF RECON,ioos:station:SCCF:53:1,2011-09-10T15:00:00Z,26.6493,-81.8810,2.307,0.21,1111122 
SCCF RECON,ioos:station:SCCF:53:1,2011-09-10T16:00:00Z,26.6493,-81.8810,2.362,0.22,1111122 
SCCF RECON,ioos:station:SCCF:53:1,2011-09-10T17:00:00Z,26.6493,-81.8810,2.434,0.21,1111122 
SCCF RECON,ioos:station:SCCF:53:1,2011-09-10T18:00:00Z,26.6493,-81.8810,2.5,0.21,1111122 
SCCF RECON,ioos:station:SCCF:53:1,2011-09-10T19:00:00Z,26.6493,-81.8810,2.531,0.21,1111122 
SCCF RECON,ioos:station:SCCF:53:1,2011-09-10T20:00:00Z,26.6493,-81.8810,2.531,0.22,1111122 
SCCF RECON,ioos:station:SCCF:53:1,2011-09-10T21:00:00Z,26.6493,-81.8810,2.481,0.22,1111122 
SCCF RECON,ioos:station:SCCF:53:1,2011-09-10T22:00:00Z,26.6493,-81.8810,2.421,0.22,1111122 
SCCF RECON,ioos:station:SCCF:53:1,2011-09-10T23:00:00Z,26.6493,-81.8810,2.37,0.21,1111122 
SCCF RECON,ioos:station:SCCF:53:1,2011-09-11T00:00:00Z,26.6493,-81.8810,2.32,0.22,1111122 
SCCF RECON,ioos:station:SCCF:53:1,2011-09-11T01:00:00Z,26.6493,-81.8810,2.278,0.22,1111122 
SCCF RECON,ioos:station:SCCF:53:1,2011-09-11T02:00:00Z,26.6493,-81.8810,2.235,0.22,1111122 
SCCF RECON,ioos:station:SCCF:53:1,2011-09-11T03:00:00Z,26.6493,-81.8810,2.22,0.21,1111122 
SCCF RECON,ioos:station:SCCF:53:1,2011-09-11T04:00:00Z,26.6493,-81.8810,2.26,0.22,1111122 
SCCF RECON,ioos:station:SCCF:53:1,2011-09-11T05:00:00Z,26.6493,-81.8810,2.31,0.22,1111122 
SCCF RECON,ioos:station:SCCF:53:1,2011-09-11T06:00:00Z,26.6493,-81.8810,2.35,0.22,1111122 
SCCF RECON,ioos:station:SCCF:53:1,2011-09-11T07:00:00Z,26.6493,-81.8810,2.41,0.22,1111122 
SCCF RECON,ioos:station:SCCF:53:1,2011-09-11T08:00:00Z,26.6493,-81.8810,2.43,0.22,1111122 
SCCF RECON,ioos:station:SCCF:53:1,2011-09-11T09:00:00Z,26.6493,-81.8810,2.392,0.22,1111122 
SCCF RECON,ioos:station:SCCF:53:1,2011-09-11T10:00:00Z,26.6493,-81.8810,2.347,0.22,1111122 
SCCF RECON,ioos:station:SCCF:53:1,2011-09-11T11:00:00Z,26.6493,-81.8810,2.301,0.22,1111122 
SCCF RECON,ioos:station:SCCF:53:1,2011-09-11T12:00:00Z,26.6493,-81.8810,2.255,0.22,1111122 
SCCF RECON,ioos:station:SCCF:53:1,2011-09-11T13:00:00Z,26.6493,-81.8810,2.217,0.21,1111122 
SCCF RECON,ioos:station:SCCF:53:1,2011-09-11T14:00:00Z,26.6493,-81.8810,2.187,0.21,1111122 
SCCF RECON,ioos:station:SCCF:53:1,2011-09-11T15:00:00Z,26.6493,-81.8810,2.22,0.21,1111122 
SCCF RECON,ioos:station:SCCF:53:1,2011-09-11T16:00:00Z,26.6493,-81.8810,2.29,0.22,1111122 
SCCF RECON,ioos:station:SCCF:53:1,2011-09-11T17:00:00Z,26.6493,-81.8810,2.35,0.22,1111122 
SCCF RECON,ioos:station:SCCF:53:1,2011-09-11T18:00:00Z,26.6493,-81.8810,2.414,0.22,1111122 
SCCF RECON,ioos:station:SCCF:53:1,2011-09-11T19:00:00Z,26.6493,-81.8810,2.476,0.22,1111122 
SCCF RECON,ioos:station:SCCF:53:1,2011-09-11T20:00:00Z,26.6493,-81.8810,2.506,0.22,1111122 
SCCF RECON,ioos:station:SCCF:53:1,2011-09-11T21:00:00Z,26.6493,-81.8810,2.49,0.22,1111122 